[[{"header":{"parameterUnit":"m.s-1","parameterCategory":1,"la1":30.2991,"la2":30.254,"lo1":-89.0895,"lo2":-89.0444,"dy":0.0017,"dx":0.0017,"nx":28,"ny":28,"refTime":"2025-01-01T09:00:00:Z","depth":0,"parameterNumber":2,"parameterNumberName":"U-component_of_WINDS"},"data":[0,0,0,0,0,0,0,0,0,0,0,0,0,0,0,0,0,0,0,0,0,0,0,0,0,0,0,0,0,0,0,0,0,0,0,0,0,0,0,0,0,0,0,0,0,0,0,0,0,0,0,0,0,0,0,0,0,0,-3.6363,-3.6363,0,-3.6339,-3.6339,-3.6339,-3.6208,-3.6204,-3.6201,-3.6198,-3.6177,-3.6179,-3.6182,0,0,0,0,0,0,0,0,0,0,0,0,0,-3.63,-3.6302,-3.6363,-3.6363,-3.6363,-3.6339,-3.6339,-3.6339,-3.6208,-3.6204,-3.6201,-3.6197,-3.6176,-3.6179,-3.6182,0,0,0,0,0,0,0,0,0,0,0,0,0,-3.6307,-3.6302,-3.6363,-3.6295,-3.6288,-3.6339,-3.6339,-3.6339,-3.6209,-3.6204,-3.62,-3.6195,-3.6175,-3.6179,-3.6182,-3.6298,0,0,-3.6193,-3.6194,0,0,0,0,0,0,0,0,-3.6307,-3.6309,-3.6305,-3.6299,-3.6292,-3.6271,-3.6309,-3.6325,-3.621,-3.6239,-3.6198,-3.6193,-3.6212,-3.6213,-3.6219,-3.6297,-3.6296,-3.6193,-3.6195,-3.6197,-3.6198,0,0,0,0,0,0,0,-3.6306,-3.631,-3.6354,-3.6305,-3.6297,-3.6266,-3.6262,-3.6311,-3.6253,-3.6236,-3.6227,-3.6226,-3.6208,-3.6215,-3.6217,-3.6296,-3.6193,-3.6196,-3.6198,-3.62,-3.6471,-3.6476,0,0,0,0,0,0,-3.6315,-3.631,-3.6354,-3.6353,-3.6288,-3.6271,-3.6267,-3.6283,-3.6252,-3.6242,-3.623,-3.6219,-3.6212,-3.6213,-3.6216,-3.635,-3.6197,-3.62,-3.6202,-3.6466,-3.6472,-3.6477,0,0,0,0,0,0,-3.6314,-3.632,-3.6355,-3.6329,-3.6331,-3.6277,-3.6297,-3.6285,-3.6292,-3.6247,-3.6236,-3.6248,-3.6208,-3.6211,-3.6279,-3.6348,-3.6202,-3.6205,-3.646,-3.6468,-3.6475,-3.662,0,0,0,0,0,0,-3.6313,-3.6321,-3.6363,-3.6331,-3.6333,-3.6418,-3.6301,-3.6288,-3.6298,-3.6285,-3.6261,-3.6252,-3.6205,-3.6274,-3.6283,-3.635,-3.6208,-3.6453,-3.6463,-3.6472,-3.6609,-3.6632,-3.6651,0,0,0,0,0,-3.6311,-3.6405,-3.6366,-3.6372,-3.6385,-3.6422,-3.6424,-3.6366,-3.6304,-3.6347,-3.6318,-3.6253,-3.6339,-3.6282,-3.629,-3.636,-3.6449,-3.646,-3.6471,-3.6599,-3.6627,-3.6651,0,0,0,0,0,0,-3.6447,-3.64,-3.6355,-3.6442,-3.6437,-3.64,-3.6452,-3.6397,-3.641,-3.6397,-3.6327,-3.6322,-3.6401,-3.6387,-3.6325,-3.6472,-3.6383,-3.6397,-3.6477,-3.6504,-3.6524,-3.6526,-3.6211,0,0,0,0,0,-3.6488,-3.6521,-3.6478,-3.6559,-3.6558,-3.6507,-3.652,-3.6477,-3.6469,-3.6467,-3.6442,-3.6439,-3.6465,-3.6484,-3.6505,-3.6607,-3.66,-3.6659,-3.668,-3.6698,-3.671,-3.6764,-3.679,-3.6515,-3.6515,-3.6515,0,0,-3.6571,-3.6549,-3.6574,-3.6586,-3.6576,-3.6614,-3.6505,-3.6549,-3.6576,-3.6473,-3.6536,-3.6519,-3.651,-3.6596,-3.6632,-3.6587,-3.6785,-3.6712,-3.6727,-3.6729,-3.6779,-3.6805,-3.6828,-3.6523,-3.6521,-3.652,0,0,-3.6741,-3.6728,-3.6794,-3.6788,-3.6775,-3.674,-3.6757,-3.6728,-3.6713,-3.6774,-3.6698,-3.6731,-3.6777,-3.6774,-3.6779,-3.6952,-3.6892,-3.6961,-3.7071,-3.7125,-3.7146,-3.7165,-3.7227,-3.725,-3.6974,-3.6974,-3.6974,0,-3.6846,-3.6898,-3.6835,-3.6884,-3.6892,-3.68,-3.6868,-3.6865,-3.6861,-3.6869,-3.6818,-3.6875,-3.6863,-3.6947,-3.699,-3.6997,-3.7014,-3.6962,-3.7148,-3.7167,-3.7183,-3.7241,-3.7265,-3.6982,-3.6981,-3.698,-3.698,0,-3.7028,-3.7066,-3.7121,-3.7119,-3.7133,-3.7191,-3.7138,-3.7161,-3.7117,-3.7088,-3.7153,-3.7135,-3.7152,-3.7169,-3.7127,-3.7249,-3.7221,-3.7161,-3.7069,-3.7219,-3.7272,-3.7294,-3.6994,-3.6991,-3.6989,-3.6987,0,0,-3.7282,-3.7246,-3.7267,-3.7265,-3.7247,-3.7275,-3.733,-3.7346,-3.7367,-3.7369,-3.7413,-3.7456,-3.74,-3.7406,-3.7363,-3.741,-3.7549,-3.7343,-3.7342,-3.7382,-3.7683,-3.7728,-3.7755,-3.751,-3.7514,-3.7517,-3.7683,0,-3.7445,-3.7535,-3.7481,-3.758,-3.7615,-3.753,-3.7578,-3.7573,-3.7548,-3.7575,-3.7548,-3.7579,-3.7503,-3.7506,-3.7549,-3.7523,-3.7608,-3.751,-3.7552,-3.7554,-3.7556,-3.7782,-3.783,-3.7987,-3.7704,-3.7707,-3.771,0,-3.7646,-3.7656,-3.7759,-3.7734,-3.7747,-3.7791,-3.7802,-3.7829,-3.7822,-3.7801,-3.7809,-3.7754,-3.7808,-3.772,-3.7794,-3.7729,-3.7743,-3.7733,-3.7738,-3.7739,-3.764,-3.7789,-3.8036,-3.806,-3.7742,-3.774,-3.7737,0,-3.7821,-3.786,-3.7926,-3.7928,-3.7902,-3.7935,-3.7926,-3.7914,-3.7928,-3.7938,-3.7947,-3.7964,-3.7974,-3.7989,-3.7942,-3.7882,-3.8023,-3.793,-3.8008,-3.8009,-3.804,-3.8038,-3.8292,-3.8051,-3.8051,-3.805,-3.805,0,-3.8008,-3.8074,-3.8005,-3.8046,-3.8118,-3.8056,-3.813,-3.8112,-3.8103,-3.814,-3.8069,-3.8105,-3.8041,-3.8072,-3.8035,-3.8103,-3.8108,-3.8093,-3.8082,-3.8099,-3.8101,-3.8106,-3.8094,-3.8056,-3.8055,-3.8054,-3.8053,0,-3.8215,-3.8171,-3.8237,-3.8208,-3.8202,-3.8256,-3.8231,-3.8269,-3.824,-3.8288,-3.8296,-3.8251,-3.8284,-3.8239,-3.8267,-3.8243,-3.8335,-3.8309,-3.8337,-3.8329,-3.8409,-3.8403,-3.8675,-3.8708,-3.8447,-3.8449,-3.8451,0,-3.8336,-3.8385,-3.8361,-3.838,-3.8375,-3.8407,-3.8421,-3.8363,-3.8381,-3.8378,-3.8417,-3.8443,-3.8461,-3.8518,-3.8489,-3.8511,-3.8483,-3.8578,-3.8486,-3.8502,-3.8485,-3.8482,-3.8487,-3.8596,-3.8599,-3.8602,-3.8604,0,-3.8557,-3.8534,-3.8555,-3.8571,-3.8589,-3.8599,-3.8603,-3.8624,-3.8564,-3.8587,-3.8619,-3.8634,-3.8663,-3.8691,-3.8705,-3.8697,-3.8642,-3.8633,-3.8652,-3.8669,-3.8684,-3.8677,-3.8388,-3.8627,-3.8625,-3.8623,-3.8622,-3.8621,-3.8724,-3.8764,-3.8754,-3.8781,-3.8779,-3.8785,-3.8819,-3.8795,-3.8821,-3.8839,-3.8804,-3.8846,-3.884,-3.8854,-3.8852,-3.8885,-3.8844,-3.8872,-3.8879,-3.8886,-3.8898,-3.868,-3.8888,-3.8887,-3.8886,-3.8886,-3.8885,0,-3.8941,-3.8931,-3.8957,-3.8965,-3.8988,-3.8933,-3.8936,-3.8959,-3.8996,-3.8995,-3.9014,-3.9052,-3.908,-3.9054,-3.9076,-3.9108,-3.9083,-3.9116,-3.9112,-3.9112,-3.8934,-3.8915,-3.9135,-3.9135,-3.9135,-3.9135,-3.9135,-3.9135,-3.9057,-3.9121,-3.9097,-3.9161,-3.915,-3.919,-3.9196,-3.9202,-3.9201,-3.9247,-3.9269,-3.9252,-3.9241,-3.9263,-3.9286,-3.9278,-3.929,-3.9332,-3.9315,-3.9149,-3.9124,-3.9101,-3.9082,-3.9335,-3.9335,-3.949,-3.9491,-3.9492]},{"header":{"parameterUnit":"m.s-1","parameterCategory":1,"la1":30.2991,"la2":30.254,"lo1":-89.0895,"lo2":-89.0444,"dy":0.0017,"dx":0.0017,"nx":28,"ny":28,"refTime":"2025-01-01T09:00:00:Z","depth":0,"parameterNumber":3,"parameterNumberName":"V-component_of_WINDS"},"data":[0,0,0,0,0,0,0,0,0,0,0,0,0,0,0,0,0,0,0,0,0,0,0,0,0,0,0,0,0,0,0,0,0,0,0,0,0,0,0,0,0,0,0,0,0,0,0,0,0,0,0,0,0,0,0,0,0,0,0.7985,0.7985,0,0.7962,0.7962,0.7962,0.7982,0.7983,0.7984,0.7984,0.7956,0.7955,0.7953,0,0,0,0,0,0,0,0,0,0,0,0,0,0.8044,0.8043,0.7985,0.7985,0.7985,0.7962,0.7962,0.7962,0.7982,0.7983,0.7984,0.7985,0.7957,0.7955,0.7953,0,0,0,0,0,0,0,0,0,0,0,0,0,0.802,0.8043,0.7985,0.7992,0.7993,0.7962,0.7962,0.7962,0.7981,0.7983,0.7984,0.7985,0.7957,0.7955,0.7953,0.7913,0,0,0.7946,0.7945,0,0,0,0,0,0,0,0,0.8021,0.8017,0.7991,0.7992,0.7992,0.7976,0.7973,0.7945,0.7981,0.7986,0.7984,0.7986,0.7962,0.7959,0.7952,0.7912,0.7911,0.7946,0.7944,0.7943,0.7943,0,0,0,0,0,0,0,0.8023,0.8019,0.7976,0.7991,0.7991,0.7996,0.7993,0.7967,0.7967,0.7985,0.7987,0.7984,0.7962,0.7954,0.7951,0.791,0.7946,0.7944,0.7942,0.7941,0.7839,0.7837,0,0,0,0,0,0,0.8024,0.802,0.7977,0.7975,0.801,0.7994,0.7991,0.798,0.7967,0.7966,0.7983,0.7985,0.7957,0.7954,0.795,0.7904,0.7943,0.7941,0.794,0.784,0.7838,0.7837,0,0,0,0,0,0,0.8025,0.802,0.7978,0.7998,0.7993,0.7991,0.7978,0.7979,0.7971,0.7965,0.7965,0.7975,0.7958,0.7954,0.7923,0.7903,0.794,0.7938,0.7841,0.7839,0.7838,0.781,0,0,0,0,0,0,0.8027,0.802,0.8006,0.7998,0.7992,0.7951,0.7977,0.7977,0.7967,0.797,0.7958,0.7957,0.7959,0.7926,0.7921,0.7901,0.7936,0.7843,0.7841,0.7838,0.7813,0.7807,0.7803,0,0,0,0,0,0.8029,0.7998,0.8005,0.8,0.7974,0.795,0.7947,0.7951,0.7966,0.7951,0.7948,0.7957,0.7907,0.7923,0.7917,0.7896,0.7844,0.7841,0.7838,0.7815,0.7809,0.7803,0,0,0,0,0,0,0.8001,0.7997,0.8005,0.797,0.7961,0.7954,0.7935,0.7944,0.7929,0.7931,0.7936,0.7933,0.7901,0.7895,0.7914,0.7858,0.7878,0.7873,0.7862,0.7856,0.7851,0.7852,0.7934,0,0,0,0,0,0.7992,0.7974,0.7971,0.794,0.7936,0.7936,0.7926,0.793,0.792,0.7916,0.791,0.7899,0.7881,0.7868,0.7851,0.7813,0.781,0.7795,0.779,0.7786,0.7782,0.7762,0.7756,0.7827,0.7827,0.7827,0,0,0.7971,0.7966,0.7954,0.7935,0.7928,0.7909,0.7932,0.7911,0.7897,0.7912,0.7883,0.7879,0.7867,0.7833,0.7817,0.7827,0.7762,0.7783,0.7779,0.7777,0.7758,0.7752,0.7746,0.7825,0.7825,0.7825,0,0,0.7923,0.7917,0.7892,0.7886,0.7876,0.7877,0.7871,0.7863,0.7862,0.7834,0.7845,0.7828,0.7796,0.7787,0.7779,0.773,0.7739,0.7724,0.7698,0.7679,0.7673,0.7668,0.7651,0.7644,0.772,0.772,0.772,0,0.7897,0.787,0.7878,0.7856,0.7847,0.7863,0.7837,0.783,0.7814,0.7808,0.782,0.7781,0.7774,0.7739,0.7727,0.772,0.7713,0.7725,0.7673,0.7669,0.7664,0.7647,0.7641,0.7719,0.7719,0.7719,0.7719,0,0.7839,0.782,0.7801,0.7788,0.7777,0.7753,0.7757,0.7745,0.7751,0.7751,0.7722,0.7715,0.7697,0.7689,0.7694,0.7654,0.7661,0.7673,0.7693,0.7655,0.764,0.7634,0.7716,0.7717,0.7717,0.7718,0,0,0.7771,0.7765,0.7757,0.7752,0.7744,0.7729,0.7706,0.7691,0.768,0.767,0.7651,0.7625,0.7637,0.7627,0.7631,0.7614,0.7577,0.7629,0.7628,0.7619,0.7533,0.7524,0.7516,0.7583,0.7582,0.7581,0.7534,0,0.7722,0.7684,0.7692,0.7654,0.7637,0.7653,0.7634,0.7626,0.7626,0.7611,0.761,0.7591,0.7608,0.7603,0.7587,0.7585,0.756,0.7588,0.7564,0.7564,0.7566,0.7508,0.7498,0.7454,0.7528,0.7527,0.7527,0,0.766,0.765,0.7611,0.7607,0.76,0.7583,0.757,0.7555,0.7547,0.7548,0.7539,0.7547,0.7524,0.7546,0.7514,0.7534,0.7525,0.7523,0.7521,0.7518,0.7542,0.7503,0.744,0.7433,0.7517,0.7518,0.7519,0,0.7614,0.759,0.7564,0.7559,0.7554,0.7542,0.7539,0.7532,0.7523,0.7512,0.7506,0.7491,0.7483,0.7471,0.7475,0.749,0.7442,0.7464,0.7442,0.7442,0.743,0.743,0.7363,0.7425,0.7425,0.7426,0.7426,0,0.7558,0.7534,0.7544,0.7528,0.7501,0.751,0.7483,0.7482,0.7477,0.7461,0.7473,0.7457,0.7464,0.7448,0.7451,0.7424,0.7421,0.742,0.7421,0.7419,0.7419,0.7412,0.7415,0.7424,0.7424,0.7425,0.7425,0,0.7501,0.7507,0.748,0.7479,0.7478,0.7458,0.7456,0.7441,0.7443,0.7422,0.7418,0.742,0.7403,0.7406,0.7386,0.7388,0.7355,0.736,0.7358,0.7359,0.7336,0.7338,0.7262,0.7252,0.7321,0.732,0.732,0,0.7465,0.7447,0.7445,0.7436,0.7432,0.7417,0.7409,0.7417,0.7408,0.7399,0.7385,0.7369,0.7357,0.7328,0.7327,0.7312,0.7316,0.7291,0.7314,0.7313,0.7316,0.7316,0.7315,0.7286,0.7285,0.7284,0.7284,0,0.74,0.7405,0.7393,0.7382,0.7372,0.7363,0.7356,0.7347,0.7355,0.7344,0.7327,0.7318,0.7299,0.7283,0.727,0.7266,0.7276,0.7277,0.7271,0.7268,0.7267,0.7267,0.7345,0.7278,0.7279,0.7279,0.7279,0.728,0.7352,0.7338,0.7334,0.7321,0.7317,0.731,0.7296,0.7298,0.7284,0.7271,0.7277,0.7258,0.7252,0.7235,0.723,0.7215,0.7224,0.7215,0.7213,0.7211,0.7208,0.7271,0.7213,0.7213,0.7213,0.7213,0.7213,0,0.7288,0.7287,0.7275,0.7265,0.7255,0.7268,0.7261,0.725,0.7234,0.7229,0.7217,0.7199,0.7184,0.7183,0.7169,0.7157,0.7161,0.7153,0.7153,0.7152,0.72,0.7207,0.715,0.715,0.715,0.715,0.715,0.715,0.7253,0.723,0.7234,0.7208,0.7208,0.719,0.7185,0.7179,0.7175,0.7154,0.7143,0.7143,0.714,0.7126,0.7113,0.7113,0.7107,0.7097,0.7098,0.7143,0.7149,0.7155,0.7161,0.7095,0.7095,0.7052,0.7051,0.7051]}]]